STARLINK-35919

Last updated on Fri Dec 19 2025 00:02:08 GMT+0000 (Coordinated Universal Time)

1 66888U 25283L 25352.58336806 -.01358191 00000+0 -85187-2 0 9992 2 66888 53.1553 44.4020 0001089 55.9228 84.8313 15.78685410 3367
UTC large
Height (km)
Speed (km/s)
/
Latitude / Longitude
Inclination (degrees)
Orbital Period (minutes)
Azimuth
Elevation
Range (km)
Doppler Factor

Next 0 passes for location: London (51.5072 / 0.1276)

Sorry there are no passes over London.